User: anonymous
Location: Unspecified
(0.0000°N, 0.0000°E)
Time: 15:42:32
(UTC+02:00)
Language:

Cosmos 1151 - Orbit

View from above orbital plane
View from above orbital plane
View from above satellite
View from above satellite

Ground track
Ground track

The orbit data is extracted from the following two-line orbital elements,

1 11671U 80005A   14105.75755454  .00108625  00000-0  71302-3 0  4074
2 11671 082.4698 025.7412 0005493 131.6984 258.5970 15.75370784878319
Epoch (UTC): 15 April 2014 18:10:52
Eccentricity: 0.0005493
inclination: 82.4698°
perigee height: 340 km
apogee height: 347 km
right ascension of ascending node: 25.7412°
argument of perigee: 131.6984°
revolutions per day: 15.75370784
mean anomaly at epoch: 258.5970°
orbit number at epoch: 87831

The dashed part of the orbit path shows where the satellite is in the earth's shadow,  

DLR